Hourly Data Report for September 26, 2017

All times are specified in Local Standard Time (LST). Add 1 hour to adjust for Daylight Saving Time where and when it is observed.

PENTICTON A
BRITISH COLUMBIA

49°27'45.000" N
119°36'08.000" W
344.40 m
1126146
71889
YYF

Download Data

Hourly Data (September 2017)
Hourly Data Report for September 26, 2017
Temp Definition
°C
Dew Point Temp Definition
°C
Rel Hum Definition
%
Wind Dir Definition
10's deg

Wind Spd Definition
km/h
Visibility Definition
km
Stn Press Definition
kPa
Hmdx Definition


Wind Chill Definition


Weather Definition


TIME
00:00 Legend Double Dagger 11.1 9.1 87 32 5 24.1 97.83     LegendNANA
01:00 Legend Double Dagger 10.5 8.9 90 36 3 24.1 97.89     Mostly Cloudy
02:00 Legend Double Dagger 8.7 7.6 93 36 3 24.1 97.91     LegendNANA
03:00 Legend Double Dagger 8.1 7.0 93 3 4 24.1 97.98     LegendNANA
04:00 Legend Double Dagger 7.6 7.2 97 36 1 24.1 98.01     Mainly Clear
05:00 Legend Double Dagger 7.0 6.6 98 36 2 24.1 98.04     LegendNANA
06:00 Legend Double Dagger 7.7 6.9 95 10 5 24.1 98.11     LegendNANA
07:00 Legend Double Dagger 9.1 7.9 92 36 1 24.1 98.15     Mainly Clear
08:00 Legend Double Dagger 13.8 10.4 80 18 3 24.1 98.17     LegendNANA
09:00 Legend Double Dagger 15.8 9.2 65 20 6 24.1 98.18     LegendNANA
10:00 Legend Double Dagger 17.1 9.3 60 14 9 24.1 98.15     Mainly Clear
11:00 Legend Double Dagger 19.7 10.2 54 35 9 24.1 98.10     LegendNANA
12:00 Legend Double Dagger 20.8 9.7 49 1 15 24.1 98.05     LegendNANA
13:00 Legend Double Dagger 21.3 9.4 46 35 13 24.1 98.01     Mainly Clear
14:00 Legend Double Dagger 21.8 10.3 47 36 13 24.1 97.98     LegendNANA
15:00 Legend Double Dagger 21.9 9.6 45 35 15 24.1 97.96     LegendNANA
16:00 Legend Double Dagger 22.0 9.9 46 35 11 24.1 97.93     Mainly Clear
17:00 Legend Double Dagger 19.4 10.4 56 34 12 24.1 97.92     LegendNANA
18:00 Legend Double Dagger 15.9 9.2 64 36 2 24.1 97.95     LegendNANA
19:00 Legend Double Dagger 14.6 8.3 65 33 8 24.1 98.02     Mainly Clear
20:00 Legend Double Dagger 14.0 6.9 62 35 12 24.1 98.05     LegendNANA
21:00 Legend Double Dagger 13.7 6.7 62 20 4 24.1 98.10     LegendNANA
22:00 Legend Double Dagger 11.7 5.7 67 5 4 24.1 98.14     Mainly Clear
23:00 Legend Double Dagger 10.4 5.4 71 33 4 24.1 98.17     LegendNANA

Notes on Data Quality.

Legend

  • E = Estimated
  • M = Missing
  • NA = Not Available
  • ‡ = Partner data that is not subject to review by the National Climate Archives
Date modified: